FW0273 Weather Reports


Display with metric or nautical units.
time (UTC)temp
F
wind
direction
speed
MPH
gust
MPH
rain 1hr
in
rain 24hr
in
rain mn
in
humidity
%
barometer
mb
20260509032249 72 0.0 1.0 0.00 0.30 0.30 79 1011.0
20260509031248 72 0.0 0.0 0.00 0.30 0.30 79 1011.0
20260509030247 72 144 1.0 1.0 0.00 0.30 0.30 79 1010.7
20260509025246 72 129 2.0 4.0 0.00 0.30 0.30 79 1010.5
20260509024244 72 122 4.0 4.0 0.00 0.30 0.30 79 1010.1
20260509023253 72 111 4.0 6.0 0.00 0.30 0.30 78 1009.8
20260509022312 72 110 3.0 6.0 0.00 0.30 0.30 78 1009.9
20260509021251 72 105 1.0 4.0 0.00 0.30 0.30 78 1009.9
20260509020249 72 140 2.0 3.0 0.00 0.30 0.30 77 1009.8
20260509015309 72 128 2.0 3.0 0.00 0.30 0.30 77 1009.7
20260509014247 73 105 2.0 3.0 0.00 0.30 0.30 77 1009.6
20260509013245 73 0.0 2.0 0.00 0.30 0.30 76 1009.5
20260509012244 73 133 0.0 6.0 0.00 0.30 0.30 75 1009.5
20260509011253 73 133 1.0 6.0 0.00 0.30 0.30 74 1009.5
20260509010252 74 111 6.0 8.0 0.00 0.30 0.30 73 1009.1
20260509005250 74 118 6.0 8.0 0.00 0.30 0.30 73 1009.0
20260509004310 74 134 5.0 5.0 0.00 0.30 0.30 72 1008.9
20260509003248 74 116 3.0 7.0 0.00 0.30 0.30 71 1008.9
20260509002307 74 115 3.0 7.0 0.00 0.30 0.30 71 1008.9
20260509001245 75 112 2.0 5.0 0.00 0.30 0.30 71 1009.0
20260509000244 76 117 3.0 5.0 0.00 0.30 0.30 70 1009.4
20260508235252 76 119 3.0 6.0 0.00 0.30 0.30 69 1009.4
20260508234251 76 122 4.0 6.0 0.00 0.30 0.30 69 1009.4
20260508233250 77 128 3.0 7.0 0.00 0.30 0.30 68 1009.4
20260508232249 77 126 3.0 7.0 0.00 0.30 0.30 68 1009.5
20260508231247 77 123 3.0 4.0 0.00 0.30 0.30 69 1009.6
20260508230246 77 127 4.0 5.0 0.00 0.30 0.30 68 1009.5
20260508225245 78 128 4.0 5.0 0.00 0.30 0.30 67 1009.5
20260508224244 79 129 3.0 4.0 0.00 0.30 0.30 65 1009.5
20260508223252 80 92 2.0 4.0 0.00 0.30 0.30 65 1009.4
20260508222251 79 127 2.0 6.0 0.00 0.30 0.30 66 1009.3
20260508221250 79 178 3.0 6.0 0.00 0.30 0.30 66 1009.2
20260508220249 79 90 2.0 10.0 0.00 0.30 0.30 65 1009.2
20260508215247 79 111 3.0 10.0 0.00 0.30 0.30 65 1009.2
20260508214246 79 128 5.0 9.0 0.00 0.30 0.30 66 1009.4
20260508213305 78 128 3.0 8.0 0.00 0.30 0.30 65 1009.8
20260508212244 78 128 3.0 8.0 0.00 0.30 0.30 65 1009.8
20260508211313 76 100 3.0 6.0 0.00 0.30 0.30 68 1010.7
20260508210251 76 83 1.0 6.0 0.00 0.30 0.30 66 1011.0
20260508205310 77 105 1.0 7.0 0.00 0.30 0.30 65 1011.1
20260508204249 77 153 1.0 7.0 0.00 0.30 0.30 64 1011.1
20260508203247 78 154 1.0 3.0 0.00 0.30 0.30 64 1011.1
20260508202246 78 172 1.0 5.0 0.00 0.30 0.30 63 1011.2
20260508201245 79 209 1.0 5.0 0.00 0.30 0.30 62 1011.3
20260508200253 79 94 4.0 9.0 0.00 0.30 0.30 63 1011.3
20260508195252 79 94 4.0 9.0 0.00 0.30 0.30 63 1011.3
20260508194330 78 128 5.0 6.0 0.00 0.30 0.30 63 1011.5
20260508193249 79 125 5.0 11.0 0.00 0.30 0.30 63 1011.7
20260508192308 78 124 6.0 11.0 0.00 0.30 0.30 63 1011.7
20260508191327 78 123 7.0 9.0 0.00 0.30 0.30 63 1011.8
20260508190306 77 105 1.0 9.0 0.00 0.30 0.30 63 1011.8
20260508185244 77 105 1.0 9.0 0.00 0.30 0.30 63 1011.8
20260508184253 78 114 4.0 7.0 0.00 0.30 0.30 64 1012.1
20260508183312 77 122 4.0 9.0 0.00 0.30 0.30 65 1012.4
20260508182250 77 121 3.0 9.0 0.00 0.30 0.30 66 1012.5
20260508181309 77 110 1.0 5.0 0.00 0.30 0.30 66 1012.7
20260508180248 75 0.0 2.0 0.00 0.30 0.30 63 1013.0
20260508175247 75 134 0.0 6.0 0.00 0.30 0.30 64 1013.0
20260508174245 75 134 1.0 6.0 0.00 0.30 0.30 66 1013.1
20260508173244 74 92 1.0 10.0 0.00 0.30 0.30 67 1013.7
20260508172252 74 92 1.0 10.0 0.00 0.30 0.30 67 1013.7
20260508171251 74 119 4.0 7.0 0.00 0.30 0.30 69 1013.9
20260508170250 73 145 3.0 7.0 0.00 0.30 0.30 68 1014.2
20260508165248 72 140 2.0 7.0 0.00 0.30 0.30 68 1014.3
20260508164247 71 107 1.0 3.0 0.00 0.30 0.30 68 1014.7
20260508163246 71 103 2.0 8.0 0.00 0.30 0.30 70 1014.8
20260508162244 71 117 2.0 8.0 0.00 0.30 0.30 70 1014.8
20260508161253 70 202 1.0 2.0 0.00 0.30 0.30 72 1014.8
20260508160252 68 127 1.0 6.0 0.00 0.30 0.30 72 1015.2
20260508155250 68 127 1.0 9.0 0.00 0.30 0.30 73 1015.1
20260508154250 68 0.0 9.0 0.00 0.30 0.30 74 1015.0
20260508153248 68 0.0 4.0 0.00 0.30 0.30 76 1015.3
20260508152247 68 0.0 4.0 0.00 0.30 0.30 76 1015.3
20260508151246 67 0.0 4.0 0.00 0.30 0.30 76 1015.2
20260508150304 66 129 3.0 4.0 0.00 0.30 0.30 81 1015.2
20260508145253 66 113 3.0 7.0 0.00 0.30 0.30 83 1015.2
20260508144252 65 89 4.0 7.0 0.00 0.30 0.30 85 1015.4
20260508143250 64 165 1.0 4.0 0.00 0.30 0.30 87 1015.4
20260508142249 64 136 2.0 4.0 0.00 0.30 0.30 87 1015.4
20260508141248 63 117 3.0 3.0 0.01 0.30 0.30 88 1015.4
20260508140307 63 126 1.0 3.0 0.01 0.30 0.30 89 1015.2
20260508135306 63 127 1.0 3.0 0.01 0.30 0.30 89 1015.3
20260508134244 62 129 1.0 2.0 0.01 0.30 0.30 89 1015.4
20260508133253 62 0.0 1.0 0.02 0.30 0.30 89 1015.3
20260508132251 62 161 0.0 1.0 0.02 0.30 0.30 89 1015.4
20260508131250 62 161 1.0 1.0 0.04 0.29 0.29 89 1015.7
20260508130249 61 161 1.0 1.0 0.04 0.29 0.29 89 1015.5
20260508125247 61 161 1.0 2.0 0.04 0.29 0.29 89 1015.6
20260508124246 61 161 1.0 2.0 0.04 0.29 0.29 89 1015.6
20260508123245 61 161 1.0 1.0 0.04 0.28 0.28 89 1015.5
20260508122244 61 138 2.0 3.0 0.04 0.28 0.28 89 1015.6
20260508121252 61 123 3.0 3.0 0.02 0.25 0.25 89 1015.7
20260508120311 61 103 2.0 6.0 0.03 0.25 0.25 89 1015.5
20260508115310 61 103 2.0 6.0 0.03 0.25 0.25 89 1015.5
20260508114249 61 0.0 0.0 0.04 0.25 0.25 89 1015.6
20260508113308 62 128 1.0 4.0 0.06 0.24 0.24 89 1015.3
20260508112246 62 128 1.0 4.0 0.06 0.24 0.24 89 1015.5
20260508111245 61 0.0 2.0 0.05 0.23 0.23 89 1016.1
20260508110303 61 140 3.0 4.0 0.04 0.22 0.22 89 1015.6
20260508105313 61 140 3.0 4.0 0.04 0.22 0.22 89 1015.6
20260508104251 61 0.0 1.0 0.03 0.21 0.21 89 1014.8
20260508103310 61 146 2.0 2.0 0.00 0.18 0.18 89 1014.5
20260508102309 61 146 1.0 2.0 0.00 0.18 0.18 89 1014.4
20260508101248 61 0.0 2.0 0.01 0.18 0.18 89 1014.3
20260508100246 61 0.0 3.0 0.01 0.18 0.18 88 1014.5
20260508095307 61 0.0 3.0 0.01 0.18 0.18 88 1014.5
20260508094244 61 0.0 1.0 0.04 0.18 0.18 88 1014.7
20260508093333 62 169 2.0 2.0 0.05 0.18 0.18 88 1014.5
20260508092313 62 169 1.0 2.0 0.05 0.18 0.18 88 1014.8
20260508091250 62 0.0 0.0 0.17 0.17 0.17 88 1015.3
20260508090249 62 0.0 1.0 0.17 0.17 0.17 86 1014.9
20260508085248 62 153 0.0 2.0 0.17 0.17 0.17 86 1015.1
20260508084246 62 153 1.0 2.0 0.14 0.14 0.14 85 1015.3
20260508083245 63 0.0 1.0 0.13 0.13 0.13 82 1015.5
20260508082244 63 0.0 1.0 0.13 0.13 0.13 82 1015.8
20260508081252 63 0.0 1.0 0.00 0.00 0.00 81 1016.4
20260508080251 62 110 1.0 1.0 0.00 0.00 0.00 82 1016.2
20260508075250 62 110 1.0 2.0 0.00 0.00 0.00 82 1016.1
20260508074249 62 0.0 2.0 0.00 0.00 0.00 82 1015.7
20260508073248 62 0.0 0.0 0.00 0.00 0.00 81 1016.0
20260508072246 62 0.0 1.0 0.00 0.00 0.00 81 1016.0
20260508071245 62 0.0 1.0 0.00 0.00 0.00 81 1015.9
20260508070304 62 0.0 0.0 0.00 0.00 0.00 81 1016.5
20260508065253 62 0.0 1.0 0.00 0.00 0.00 81 1016.5
20260508064251 63 0.0 1.0 0.00 0.00 0.00 82 1016.5
20260508063250 63 109 1.0 2.0 0.00 0.00 0.00 79 1016.5
20260508062249 63 120 1.0 3.0 0.00 0.00 0.00 79 1016.5
20260508061247 63 131 2.0 3.0 0.00 0.00 0.00 78 1016.5
20260508060306 63 129 2.0 2.0 0.00 0.00 0.00 77 1016.4
20260508055245 63 129 1.0 2.0 0.00 0.00 0.00 77 1016.4
20260508054314 63 0.0 1.0 0.00 0.00 0.00 77 1016.6
20260508053252 63 0.0 0.0 0.00 0.00 0.00 75 1016.6
20260508052251 63 0.0 0.0 0.00 0.00 0.00 75 1016.6
20260508051250 64 0.0 0.0 0.00 0.00 0.00 75 1016.5
20260508050249 64 0.0 0.0 0.00 0.00 0.00 74 1016.6
20260508045247 64 0.0 0.0 0.00 0.00 0.00 74 1016.5
20260508044306 64 0.0 0.0 0.00 0.00 0.00 73 1016.4
20260508043245 65 128 1.0 1.0 0.00 0.00 0.00 72 1016.5
20260508042243 64 128 1.0 1.0 0.00 0.00 0.00 72 1016.5
20260508041252 64 0.0 0.0 0.00 0.00 0.00 72 1016.4
20260508040310 64 0.0 0.0 0.00 0.00 0.00 73 1016.4
20260508035249 64 0.0 1.0 0.00 0.00 0.00 72 1016.4
20260508034248 64 0.0 1.0 0.00 0.00 0.00 72 1016.5
20260508033247 65 128 1.0 1.0 0.00 0.00 0.00 72 1016.3